Home   Weather   Płock   Past weeks

Flag for Poland Past Weather in Płock, Poland — Yesterday and Last 2 Weeks

Now
34 °F

Fog.


Feels Like: 30 °F
Forecast: 24 / 35 °F
Wind: 5 mph from Northwest

Location: Plock

Current Time: Jan 21, 2017 at 7:53:08 am

Latest Report: Jan 21, 2017 at 7:00 am


Visibility: 1 mi

Pressure: 30.43 "Hg

Humidity: 97%

Dew Point: 33 °F

Location of PłockLocation

Past Weather in Płock — Graph

°F

Płock Temperature Yesterday

Maximum temperature yesterday: 35 °F (at 9:00 pm)
Minimum temperature yesterday: 24 °F (at 12:00 am)
Average temperature yesterday: 30 °F

High & Low Weather Summary for the Past Weeks

 TemperatureHumidityPressure
High38 °F (Jan 13, 4:00 pm)98% (Jan 20, 12:00 pm)30.78 "Hg (Jan 20, 12:00 pm)
Low4 °F (Jan 7, 1:00 am)52% (Jan 8, 1:00 pm)29.23 "Hg (Jan 13, 1:00 pm)
Average23 °F85%30.20 "Hg
* Reported Jan 6 6:00 am — Jan 21 6:00 am, Płock, Weather by CustomWeather, © 2017

Note: Actual official high and low records may vary slightly from our data, if they occured in-between our weather recording intervals... More about our weather records

Advertising

Płock Weather History for the Previous 24 Hours

Scroll right to see more
 ConditionsComfort  
Time TempWeatherWind HumidityBarometerVisibility
6:00 am
Sat, Jan 21
34 °FFog.6 mph97%30.41 "Hg1 mi
5:00 am34 °FFog.6 mph97%30.41 "Hg1 mi
4:00 am35 °FFog.6 mph97%30.41 "Hg1 mi
3:00 am34 °FChilly.6 mph97%30.41 "Hg1 mi
2:00 am35 °FRain showers. Overcast.8 mph97%30.41 "Hg1 mi
1:00 am34 °FFog.6 mph96%30.42 "Hg1 mi
12:00 am35 °FFog.7 mph97%30.40 "Hg1 mi
11:00 pm
Fri, Jan 20
34 °FFog.7 mph97%30.42 "Hg1 mi
10:00 pm35 °FFog.7 mph97%30.42 "Hg1 mi
9:00 pm35 °FFog.7 mph97%30.41 "Hg2 mi
8:00 pm33 °FFog.6 mph97%30.42 "Hg1 mi
7:00 pm33 °FFog.6 mph96%30.42 "Hg1 mi
6:00 pm33 °FFog.5 mph96%30.43 "Hg2 mi
5:00 pm33 °FFog.6 mph97%30.45 "Hg2 mi
4:00 pm33 °FChilly.6 mph98%30.45 "HgN/A
3:00 pm32 °FFog.6 mph98%30.46 "Hg1 mi
2:00 pm33 °FChilly.3 mph98%30.46 "Hg1 mi
1:00 pm32 °FDuststorm.3 mph98%30.47 "Hg1 mi
12:00 pm31 °FDuststorm.5 mph98%30.49 "Hg1 mi
11:00 am31 °FFog.5 mph97%30.50 "Hg1 mi
10:00 am30 °FChilly.5 mph97%30.50 "Hg1 mi
9:00 am29 °FLight mixture of precip. Cloudy.3 mph97%30.51 "Hg1 mi
8:00 am28 °FFog.3 mph97%30.51 "Hg1 mi
7:00 am28 °FChilly.3 mph97%30.50 "Hg1 mi
Weather by CustomWeather, © 2017

See weather overviewHow to use our weather pages